TimeCDT,TemperatureF,Dew PointF,Humidity,Sea Level PressureIn,VisibilityMPH,Wind Direction,Wind SpeedMPH,Gust SpeedMPH,PrecipitationIn,Events,Conditions,WindDirDegrees,DateUTC
12:53 AM,73.0,61.0,66,30.01,10.0,East,6.9,-,N/A,,Mostly Cloudy,100,2013-07-14 05:53:00
1:53 AM,71.1,62.1,73,30.00,10.0,ESE,4.6,-,0.00,,Mostly Cloudy,120,2013-07-14 06:53:00
2:53 AM,71.1,62.1,73,29.99,10.0,East,5.8,-,N/A,,Clear,90,2013-07-14 07:53:00
3:53 AM,69.1,61.0,75,29.98,10.0,East,8.1,-,N/A,,Clear,100,2013-07-14 08:53:00
4:53 AM,66.9,60.1,79,29.99,10.0,ESE,5.8,-,N/A,,Clear,120,2013-07-14 09:53:00
5:53 AM,64.9,60.1,84,30.01,10.0,ESE,6.9,-,N/A,,Clear,120,2013-07-14 10:53:00
6:53 AM,64.9,60.1,84,30.02,9.0,ESE,5.8,-,N/A,,Clear,110,2013-07-14 11:53:00
7:53 AM,69.1,61.0,75,30.03,10.0,SE,5.8,-,N/A,,Clear,130,2013-07-14 12:53:00
8:53 AM,73.9,61.0,64,30.04,10.0,SE,9.2,-,N/A,,Clear,140,2013-07-14 13:53:00
9:53 AM,75.9,60.1,58,30.03,10.0,SSE,13.8,-,N/A,,Clear,150,2013-07-14 14:53:00
10:53 AM,80.1,60.1,50,30.04,10.0,SE,11.5,23.0,N/A,,Clear,140,2013-07-14 15:53:00
11:53 AM,82.9,60.1,46,30.04,10.0,ESE,13.8,20.7,N/A,,Partly Cloudy,120,2013-07-14 16:53:00
12:53 PM,82.9,60.1,46,30.04,10.0,SE,6.9,17.3,N/A,,Partly Cloudy,140,2013-07-14 17:53:00
1:53 PM,84.0,57.9,41,30.04,10.0,SE,12.7,19.6,N/A,,Partly Cloudy,130,2013-07-14 18:53:00
2:53 PM,84.9,57.9,40,30.02,10.0,East,12.7,23.0,N/A,,Clear,100,2013-07-14 19:53:00
3:53 PM,84.9,57.0,38,30.02,10.0,East,13.8,24.2,N/A,,Clear,100,2013-07-14 20:53:00
4:53 PM,86.0,55.0,35,30.02,10.0,ESE,13.8,-,N/A,,Clear,110,2013-07-14 21:53:00
5:53 PM,84.0,55.0,37,30.02,10.0,East,11.5,18.4,N/A,,Clear,100,2013-07-14 22:53:00
6:53 PM,82.9,55.9,39,30.02,10.0,East,11.5,18.4,N/A,,Clear,100,2013-07-14 23:53:00
7:53 PM,81.0,57.0,44,30.03,10.0,ESE,9.2,-,N/A,,Clear,120,2013-07-15 00:53:00
8:53 PM,77.0,57.9,52,30.04,10.0,East,5.8,-,N/A,,Clear,100,2013-07-15 01:53:00
9:53 PM,75.0,57.9,55,30.07,10.0,ENE,4.6,-,N/A,,Clear,60,2013-07-15 02:53:00
10:53 PM,75.0,59.0,57,30.08,10.0,East,8.1,-,N/A,,Clear,80,2013-07-15 03:53:00
11:53 PM,73.9,60.1,62,30.09,10.0,ENE,5.8,-,N/A,,Clear,60,2013-07-15 04:53:00